Location: Franzen
(48.6167°N, 15.3833°E)
Time: 16:04:00
(UTC+00:00)

Transit 2A Rocket - Pass Details

Date: 07 August 2021
Orbit: 586 x 916 km, 66.7° (Epoch: 23 September)

Event Time Altitude Azimuth Distance (km) Brightness Sun altitude
Rises 21:38:55 0° 312° (NW) 3,337 9.4 -22.5°
Reaches altitude 10° 21:42:03 10° 293° (WNW) 2,459 8.2 -22.7°
Maximum altitude 21:45:43 18° 254° (WSW) 2,019 7.2 -22.9°
Enters shadow 21:47:51 15° 228° (SW) 2,215 7.2 -23.0°
